Regional Weather Roundup
Issued by NWS Midland/Odessa, TX

Skip options and go directly to product.
Home | Oldest Version | Previous Version | Current Version | All | Text Only | Save Text | Print | Product List | Glossary On

Skip product version selection by date and time.   
466
ASUS44 KMAF 281210
RWRMAF
MIDLAND AREA WEATHER ROUNDUP
NATIONAL WEATHER SERVICE MIDLAND TX
700 AM CDT THU MAY 28 2015

...IN SOUTHWEST TEXAS AND SOUTHEAST NEW MEXICO...

CITY           SKY/WX    TMP DP  RH WIND       PRES   REMARKS
ALPINE         CLEAR     64  60  85 S5        30.10S
ANDREWS        CLOUDY    67  67 100 SE6       30.06R
ARTESIA        CLEAR     61  61 100 W6        30.02R
BIG SPRING     CLOUDY    74  67  79 SE9       30.07R
CARLSBAD       CLEAR     64  60  87 S6        29.99R FOG
DRYDEN           N/A     74  69  85 S10       29.97R
FORT STOCKTON  CLEAR     70  65  84 SE3       29.99R
GUAD PASS      CLEAR     63  54  72 SW12      30.11R
HOBBS          CLOUDY    66  66 100 E8        30.06R
MARFA          CLEAR     55  54  94 NW9       30.11R
MIDLAND AIRPK  CLOUDY    73  67  79 SE9       30.05R
MIDLAND INTL   CLOUDY    72  67  84 SE10      30.03R
ODESSA         CLOUDY    71  65  81 SE6       30.04R
PECOS          PTCLDY    69  64  85 SE9       29.96R
PRESIDIO       FAIR      74  62  64 N8        29.96R
SEMINOLE       CLOUDY    67  64  89 E8        30.06S
SNYDER         CLOUDY    69  68  94 E6        30.06R
WINK           CLEAR     70  65  84 SE13      29.96F
$$
...OTHER STATIONS IN TEXAS...

CITY           SKY/WX    TMP DP  RH WIND       PRES   REMARKS
ABILENE        MOCLDY    72  68  87 S9        30.05R
AMARILLO       CLEAR     62  54  74 S20       30.06S
AUSTIN         CLOUDY    73  73 100 E6        30.04R
BROWNSVILLE    CLOUDY    80  76  87 SE12      29.97R
CORPUS CHRISTI MOCLDY    79  76  90 SE9       29.97S
DALLAS FTW     MOCLDY    71  70  96 S10       30.02F
DEL RIO        CLOUDY    76  71  85 SE14      29.98F
EL PASO        PTCLDY    72  31  22 S7        30.00R
HOUSTON INT    PTCLDY    71  70  96 CALM      30.07R
LUBBOCK        CLOUDY    68  66  93 SE14      30.07R
SAN ANGELO     CLOUDY    73  68  84 S7        30.03R
SAN ANTONIO    CLOUDY    77  73  87 E5        30.04R FOG
WACO           MOCLDY    73  70  90 SE8       30.05S
WICHITA FALLS  NOT AVBL
$$
...OTHER LOCATIONS IN NEW MEXICO...

CITY           SKY/WX    TMP DP  RH WIND       PRES   REMARKS
ALAMAGORDO     PTCLDY    63  45  51 NE5       30.02R
ALBUQUERQUE    PTCLDY    56  34  43 SW5       30.11R
CANNON AFB     FOG       61  61 100 SE12      30.07F VSB<1/4
CLOVIS         CLOUDY    61  59  94 SE13        N/A  VSB<1/4
HOLLOMAN AFB   PTCLDY    62  49  63 CALM      30.00R
ROSWELL        MOCLDY    62  58  86 SW7       30.00R
RUIDOSO        CLEAR     48  41  76 CALM      30.20R
SANTA FE       MOCLDY    51  33  50 NE7       30.14R
TRUTH OR CONSE PTCLDY    60  17  18 NW8       30.07R
TUCUMCARI      CLEAR     60  56  86 E9        30.04S
$$

USA.gov is the U.S. government's official web portal to all federal, state and local government web resources and services.